Back to catalog

FALCON 9 R/B

AliveHEO
NORAD 61911·ROCKET BODY·🇺🇸 United States

Launched Nov 11, 2024 from Cape Canaveral Space Force Station

Loading…

Next Passes (next 24 hours)

TLE

FreshSource: Space-Track

Epoch: Sep 13, 2026, 02:30 UTC

1 61911U 24206B   26256.10433752  .00026432  12732-6  14425-2 0  9994
2 61911  27.0321 243.6765 7096802 256.8631  21.6052  2.55064906 16034

Track FALCON 9 R/B in real time with AllMySat

Download on the App Store